Aérodrome :
LOGIN :

S'inscrire | Disclaimer

   EN    FR    IT 

 










Légende :    VFR   VFR Marginal   IFR   IFR Intensif   IFR Très Intensif
Visi : 
Plafond : 
>= 8 km
>= 3000ft
5 à 8 km
1000 à 3000 ft
1500m à 5 km
500 à 1000 ft
800 à 1500m
200 à 500 ft
< 800m
< 200 ft
Symboles :   Orages  Brouillard  Fortes neiges  Fortes précipitations  Vent > 20 kt
SIGMETs :   Divers  Orages  Givrage  Turbulence  Onde Orograph.  Cendres Volcan.







- Altitude de l'aérodrome : 436 ft
- Code IATA : ANG
- Voir les cartes d'approche


LFBU - Angoulême Brie Champniers

DERNIER METAR :
  • 171130Z AUTO 09004KT 010V150 9999 FEW023 21/14 Q1017 NOSIG

METARs EXPIRÉS :
  • 171100Z AUTO 10004KT 050V160 9999 FEW021 20/15 Q1017 NOSIG
  • 171030Z AUTO 11004KT 060V190 CAVOK 20/15 Q1018 NOSIG
  • 171000Z AUTO VRB02KT CAVOK 19/15 Q1018 NOSIG
  • 170930Z AUTO VRB03KT CAVOK 18/15 Q1018 NOSIG
  • 170900Z AUTO 07003KT 040V100 CAVOK 16/14 Q1018 NOSIG

TAF TAF LFBU
Valide du 17 à 12h jusqu'au 18 à 12h UTC


171100Z 1712/1812 VRB03KT 9999 SCT030
BECMG 1716/1718 03010KT CAVOK
Pas de NOTAMs connus pour ce terrain.



MET'MAP, la Météo Aéronautique d'un coup d'oeil ! - Copyright ORBIFLY Décembre 2007 - Disclaimer

ORBIFLY MET'MAP TEAM :

Programmation & Développement : Alexandra Zaïnal
Conception & Développement : Baudouin d'Aumeries
Co-Programmation & Développement : Marc-Olivier Méhu
Soutien technique & logistique : Manuel Goepfert

Contact : metmap@orbifly.com




SOURCES & CREDITS :

   NOAA